[[{"header":{"parameterUnit":"m.s-1","parameterCategory":1,"la1":30.2991,"la2":30.254,"lo1":-89.0895,"lo2":-89.0444,"dy":0.0017,"dx":0.0017,"nx":28,"ny":28,"refTime":"2024-06-08T21:00:00:Z","depth":0,"parameterNumber":2,"parameterNumberName":"U-component_of_WINDS"},"data":[0,0,0,0,0,0,0,0,0,0,0,0,0,0,0,0,0,0,0,0,0,0,0,0,0,0,0,0,0,0,0,0,0,0,0,0,0,0,0,0,0,0,0,0,0,0,0,0,0,0,0,0,0,0,0,0,0,0,3.2716,3.2717,0,3.2849,3.2851,3.2852,3.29,3.29,3.2899,3.2899,3.3035,3.3039,3.3043,0,0,0,0,0,0,0,0,0,0,0,0,0,3.2504,3.2508,3.2716,3.2718,3.2719,3.2849,3.2851,3.2853,3.29,3.29,3.2899,3.2899,3.3033,3.3038,3.3043,0,0,0,0,0,0,0,0,0,0,0,0,0,3.2612,3.2509,3.2716,3.2759,3.2764,3.2849,3.2851,3.2853,3.29,3.29,3.2899,3.2898,3.3032,3.3038,3.3044,3.3095,0,0,3.3062,3.3065,0,0,0,0,0,0,0,0,3.2606,3.262,3.2751,3.2756,3.2762,3.2857,3.2826,3.2934,3.2901,3.2849,3.2899,3.2898,3.2976,3.2987,3.3013,3.3101,3.3107,3.3063,3.3066,3.3069,3.3071,0,0,0,0,0,0,0,3.2599,3.2615,3.2769,3.2753,3.2759,3.2772,3.2786,3.2847,3.2915,3.2853,3.2857,3.2872,3.2979,3.3007,3.3017,3.3109,3.3062,3.3068,3.3072,3.3074,3.3248,3.3249,0,0,0,0,0,0,3.2584,3.2608,3.2764,3.2773,3.2681,3.2776,3.2792,3.2827,3.2914,3.2927,3.2872,3.2874,3.2997,3.301,3.3022,3.3089,3.3069,3.3075,3.3078,3.3247,3.3249,3.325,0,0,0,0,0,0,3.2579,3.2597,3.2759,3.2692,3.2713,3.278,3.2819,3.283,3.2859,3.2929,3.2941,3.2889,3.2997,3.3013,3.3077,3.3094,3.3077,3.3083,3.3246,3.3248,3.3249,3.3222,0,0,0,0,0,0,3.2573,3.2595,3.2615,3.2692,3.2716,3.2811,3.282,3.2833,3.2869,3.2872,3.2947,3.2959,3.2998,3.3068,3.3083,3.3102,3.3088,3.3245,3.3247,3.3249,3.3222,3.3223,3.3223,0,0,0,0,0,3.2565,3.2602,3.2616,3.2634,3.2742,3.2812,3.2827,3.2871,3.287,3.2891,3.2937,3.2957,3.309,3.3074,3.3091,3.3113,3.3244,3.3246,3.3249,3.3222,3.3223,3.3223,0,0,0,0,0,0,3.2524,3.2612,3.2629,3.2691,3.2744,3.282,3.2847,3.287,3.2923,3.2924,3.2976,3.2993,3.3053,3.3089,3.307,3.3168,3.3168,3.3174,3.3142,3.3143,3.3144,3.3134,3.3093,0,0,0,0,0,3.2523,3.2572,3.2646,3.2694,3.272,3.2779,3.2811,3.2841,3.2897,3.292,3.297,3.3024,3.3079,3.3113,3.3167,3.3228,3.3246,3.3252,3.3252,3.3253,3.3257,3.3294,3.3297,3.3257,3.3257,3.3257,0,0,3.252,3.2574,3.2602,3.2687,3.2732,3.2782,3.2797,3.285,3.2888,3.2928,3.2991,3.303,3.3094,3.3157,3.3188,3.319,3.3272,3.3255,3.3255,3.3259,3.3296,3.33,3.3303,3.3259,3.3258,3.3258,0,0,3.254,3.2585,3.2631,3.2676,3.2743,3.2783,3.2794,3.2868,3.2895,3.296,3.2992,3.3038,3.313,3.3175,3.321,3.325,3.3271,3.3266,3.3269,3.3305,3.3308,3.3311,3.3326,3.3331,3.327,3.327,3.327,0,3.2527,3.2604,3.2652,3.2703,3.274,3.278,3.2827,3.2868,3.295,3.2975,3.2976,3.3094,3.314,3.3215,3.3225,3.3251,3.3266,3.3257,3.3304,3.3307,3.3311,3.3326,3.3331,3.3269,3.3269,3.3269,3.327,0,3.2586,3.2639,3.2668,3.2747,3.2788,3.2836,3.2892,3.2927,3.2954,3.2994,3.306,3.3117,3.3184,3.3204,3.323,3.3284,3.3283,3.3293,3.3294,3.3313,3.3328,3.3334,3.3268,3.3268,3.3268,3.3269,0,0,3.2582,3.2689,3.2698,3.2735,3.2814,3.2856,3.2907,3.2973,3.3004,3.3059,3.3104,3.3182,3.3193,3.3233,3.3265,3.3295,3.3325,3.3302,3.3305,3.3305,3.3388,3.338,3.3386,3.334,3.3341,3.3342,3.3383,0,3.2613,3.2707,3.2752,3.2826,3.2877,3.2916,3.2962,3.3015,3.3054,3.3103,3.3146,3.3201,3.3211,3.3235,3.3268,3.3314,3.3342,3.3312,3.3383,3.3384,3.3365,3.3394,3.3385,3.342,3.3389,3.339,3.3391,0,3.2661,3.2717,3.2796,3.2871,3.2894,3.2933,3.2999,3.3045,3.3107,3.3133,3.3179,3.321,3.3267,3.3265,3.3344,3.3323,3.3354,3.3382,3.3385,3.3392,3.3388,3.3402,3.3433,3.3438,3.3401,3.34,3.3399,0,3.2651,3.2747,3.2807,3.2838,3.2926,3.2953,3.2991,3.3052,3.309,3.3147,3.3172,3.3235,3.3269,3.3318,3.3366,3.336,3.3441,3.3442,3.3465,3.3464,3.3479,3.3478,3.3515,3.35,3.35,3.35,3.35,0,3.2681,3.2728,3.2804,3.2841,3.2896,3.2948,3.3,3.3041,3.3096,3.3142,3.3181,3.3223,3.3284,3.3335,3.3373,3.3434,3.3449,3.3472,3.3482,3.3469,3.3466,3.349,3.3489,3.3501,3.3501,3.3501,3.35,0,3.2678,3.2731,3.28,3.2879,3.29,3.2936,3.3004,3.3042,3.3084,3.3142,3.3159,3.3224,3.3286,3.3339,3.342,3.3446,3.3509,3.352,3.3488,3.3493,3.3512,3.351,3.3567,3.3577,3.3554,3.3554,3.3555,0,3.2693,3.2731,3.2814,3.2848,3.2886,3.294,3.2979,3.3032,3.3071,3.3146,3.3175,3.324,3.3295,3.3392,3.3447,3.351,3.3523,3.3539,3.3533,3.3519,3.3524,3.3521,3.3526,3.3539,3.3539,3.3539,3.3539,0,3.2715,3.274,3.2795,3.2859,3.2905,3.2958,3.3012,3.3038,3.3102,3.3144,3.3208,3.3251,3.3335,3.3399,3.3468,3.3508,3.3534,3.3541,3.3549,3.3536,3.3516,3.3528,3.3488,3.3539,3.3539,3.3539,3.3539,3.3539,3.2722,3.2758,3.2823,3.2883,3.293,3.298,3.302,3.3068,3.3122,3.3195,3.3224,3.3289,3.3352,3.3448,3.3489,3.3541,3.3545,3.3557,3.356,3.3563,3.3561,3.3508,3.3554,3.3554,3.3554,3.3554,3.3554,0,3.2746,3.279,3.2845,3.2921,3.2968,3.299,3.3052,3.309,3.3148,3.3205,3.3258,3.3333,3.3396,3.3457,3.3523,3.3554,3.3568,3.3569,3.3567,3.3576,3.3553,3.3539,3.3557,3.3557,3.3557,3.3557,3.3557,3.3557,3.2764,3.2826,3.2859,3.2945,3.2989,3.3054,3.3088,3.3135,3.3181,3.3262,3.3315,3.3355,3.3414,3.3485,3.3545,3.3561,3.3584,3.3582,3.3602,3.3579,3.3578,3.3577,3.3564,3.3587,3.3587,3.3621,3.3621,3.3621]},{"header":{"parameterUnit":"m.s-1","parameterCategory":1,"la1":30.2991,"la2":30.254,"lo1":-89.0895,"lo2":-89.0444,"dy":0.0017,"dx":0.0017,"nx":28,"ny":28,"refTime":"2024-06-08T21:00:00:Z","depth":0,"parameterNumber":3,"parameterNumberName":"V-component_of_WINDS"},"data":[0,0,0,0,0,0,0,0,0,0,0,0,0,0,0,0,0,0,0,0,0,0,0,0,0,0,0,0,0,0,0,0,0,0,0,0,0,0,0,0,0,0,0,0,0,0,0,0,0,0,0,0,0,0,0,0,0,0,-0.2171,-0.2171,0,-0.218,-0.218,-0.2181,-0.2169,-0.2168,-0.2168,-0.2167,-0.2176,-0.2177,-0.2177,0,0,0,0,0,0,0,0,0,0,0,0,0,-0.2143,-0.2144,-0.2171,-0.2171,-0.2171,-0.218,-0.218,-0.2181,-0.2169,-0.2168,-0.2168,-0.2167,-0.2176,-0.2177,-0.2177,0,0,0,0,0,0,0,0,0,0,0,0,0,-0.2154,-0.2144,-0.2171,-0.2166,-0.2166,-0.218,-0.218,-0.2181,-0.2169,-0.2168,-0.2167,-0.2167,-0.2176,-0.2177,-0.2178,-0.2196,0,0,-0.218,-0.2181,0,0,0,0,0,0,0,0,-0.2154,-0.2155,-0.2167,-0.2167,-0.2166,-0.2173,-0.2174,-0.2186,-0.2169,-0.2168,-0.2167,-0.2167,-0.2175,-0.2176,-0.218,-0.2197,-0.2197,-0.2181,-0.2181,-0.2182,-0.2182,0,0,0,0,0,0,0,-0.2153,-0.2155,-0.2175,-0.2167,-0.2167,-0.2164,-0.2165,-0.2176,-0.2175,-0.2168,-0.2167,-0.2168,-0.2175,-0.2179,-0.218,-0.2197,-0.2181,-0.2181,-0.2182,-0.2182,-0.2233,-0.2234,0,0,0,0,0,0,-0.2153,-0.2154,-0.2174,-0.2175,-0.2158,-0.2165,-0.2166,-0.2171,-0.2175,-0.2175,-0.2169,-0.2168,-0.2177,-0.2179,-0.218,-0.2204,-0.2182,-0.2182,-0.2183,-0.2232,-0.2233,-0.2234,0,0,0,0,0,0,-0.2152,-0.2154,-0.2174,-0.2164,-0.2167,-0.2166,-0.2172,-0.2172,-0.2175,-0.2176,-0.2175,-0.2173,-0.2177,-0.2179,-0.2193,-0.2204,-0.2183,-0.2184,-0.2231,-0.2232,-0.2233,-0.2251,0,0,0,0,0,0,-0.2151,-0.2154,-0.2161,-0.2165,-0.2167,-0.2187,-0.2173,-0.2172,-0.2177,-0.2176,-0.2179,-0.2179,-0.2176,-0.2192,-0.2194,-0.2205,-0.2184,-0.223,-0.2232,-0.2233,-0.2249,-0.2252,-0.2255,0,0,0,0,0,-0.215,-0.2165,-0.2162,-0.2164,-0.2176,-0.2187,-0.2189,-0.2186,-0.2178,-0.2185,-0.2186,-0.2179,-0.2202,-0.2193,-0.2196,-0.2207,-0.2229,-0.2231,-0.2233,-0.2248,-0.2252,-0.2255,0,0,0,0,0,0,-0.2162,-0.2165,-0.2162,-0.2178,-0.2183,-0.2185,-0.2194,-0.219,-0.2196,-0.2195,-0.219,-0.2191,-0.2207,-0.2208,-0.2198,-0.2227,-0.2215,-0.2217,-0.2225,-0.2229,-0.2232,-0.2231,-0.2185,0,0,0,0,0,-0.2167,-0.2176,-0.2178,-0.2192,-0.2195,-0.2194,-0.2199,-0.2197,-0.2201,-0.2203,-0.2204,-0.2209,-0.2218,-0.2223,-0.2231,-0.2249,-0.2251,-0.2258,-0.2261,-0.2264,-0.2266,-0.2278,-0.2281,-0.224,-0.2239,-0.2239,0,0,-0.2176,-0.2179,-0.2185,-0.2195,-0.2198,-0.2208,-0.2196,-0.2206,-0.2214,-0.2204,-0.2219,-0.222,-0.2225,-0.2242,-0.225,-0.2244,-0.2278,-0.2266,-0.2268,-0.2269,-0.228,-0.2284,-0.2287,-0.2241,-0.224,-0.224,0,0,-0.2199,-0.2202,-0.2215,-0.2219,-0.2224,-0.2224,-0.2227,-0.2231,-0.2232,-0.2246,-0.224,-0.2249,-0.2263,-0.2267,-0.2271,-0.2298,-0.2292,-0.23,-0.2316,-0.2327,-0.233,-0.2333,-0.2344,-0.2348,-0.2302,-0.2302,-0.2302,0,-0.221,-0.2225,-0.2222,-0.2234,-0.2239,-0.2231,-0.2245,-0.2249,-0.2256,-0.226,-0.2254,-0.2273,-0.2275,-0.2294,-0.2301,-0.2304,-0.2308,-0.23,-0.233,-0.2333,-0.2336,-0.2346,-0.235,-0.2303,-0.2303,-0.2303,-0.2303,0,-0.2239,-0.2249,-0.2259,-0.2268,-0.2274,-0.2286,-0.2286,-0.2293,-0.229,-0.2291,-0.2306,-0.2309,-0.2318,-0.2323,-0.2319,-0.2342,-0.2338,-0.2331,-0.2319,-0.2341,-0.235,-0.2354,-0.2305,-0.2305,-0.2304,-0.2304,0,0,-0.2268,-0.2276,-0.228,-0.2285,-0.2291,-0.23,-0.2312,-0.2322,-0.2328,-0.2334,-0.2346,-0.2359,-0.2353,-0.2357,-0.2355,-0.2365,-0.2388,-0.2357,-0.2357,-0.2363,-0.2414,-0.242,-0.2424,-0.2384,-0.2385,-0.2385,-0.2414,0,-0.2292,-0.2314,-0.2313,-0.2334,-0.2345,-0.2339,-0.235,-0.2356,-0.2357,-0.2366,-0.2368,-0.2378,-0.2368,-0.2372,-0.2381,-0.2383,-0.2398,-0.2381,-0.2395,-0.2395,-0.2395,-0.2429,-0.2435,-0.2462,-0.2417,-0.2418,-0.2418,0,-0.2322,-0.233,-0.2353,-0.236,-0.2364,-0.2374,-0.2384,-0.2393,-0.2399,-0.24,-0.2406,-0.2403,-0.2416,-0.2404,-0.2423,-0.2412,-0.2418,-0.242,-0.2421,-0.2422,-0.2409,-0.2432,-0.247,-0.2474,-0.2424,-0.2423,-0.2423,0,-0.2343,-0.236,-0.2376,-0.238,-0.2388,-0.2395,-0.2399,-0.2405,-0.2412,-0.242,-0.2424,-0.2434,-0.2439,-0.2447,-0.2447,-0.2437,-0.2467,-0.2454,-0.2468,-0.2468,-0.2475,-0.2474,-0.2515,-0.2477,-0.2477,-0.2477,-0.2477,0,-0.237,-0.2384,-0.2386,-0.2396,-0.2412,-0.2411,-0.2427,-0.243,-0.2436,-0.2447,-0.2442,-0.2452,-0.245,-0.2461,-0.2461,-0.2478,-0.248,-0.2481,-0.2481,-0.2482,-0.2482,-0.2486,-0.2484,-0.2478,-0.2478,-0.2478,-0.2478,0,-0.2396,-0.2397,-0.2415,-0.2421,-0.2423,-0.2435,-0.2441,-0.2451,-0.2453,-0.2467,-0.247,-0.2472,-0.2485,-0.2485,-0.2499,-0.2499,-0.252,-0.2517,-0.2518,-0.2518,-0.2532,-0.2531,-0.2577,-0.2583,-0.2541,-0.2541,-0.2542,0,-0.2413,-0.2424,-0.2433,-0.244,-0.2444,-0.2456,-0.2463,-0.2463,-0.247,-0.248,-0.2489,-0.2501,-0.2511,-0.2531,-0.2534,-0.2545,-0.2543,-0.2558,-0.2545,-0.2546,-0.2545,-0.2544,-0.2546,-0.2561,-0.2562,-0.2562,-0.2562,0,-0.2444,-0.2445,-0.2455,-0.2467,-0.2476,-0.2484,-0.2492,-0.2499,-0.2499,-0.2508,-0.2521,-0.2529,-0.2544,-0.2557,-0.2568,-0.2572,-0.2568,-0.2567,-0.2571,-0.2572,-0.2573,-0.2574,-0.2526,-0.2566,-0.2565,-0.2565,-0.2565,-0.2565,-0.2467,-0.2477,-0.2486,-0.2498,-0.2504,-0.2513,-0.2523,-0.2526,-0.2537,-0.255,-0.2549,-0.2564,-0.2572,-0.2587,-0.2592,-0.2604,-0.2598,-0.2604,-0.2606,-0.2607,-0.2609,-0.2571,-0.2606,-0.2605,-0.2605,-0.2605,-0.2605,0,-0.2499,-0.2504,-0.2516,-0.2528,-0.2538,-0.2534,-0.2543,-0.2552,-0.2566,-0.2573,-0.2584,-0.26,-0.2612,-0.2617,-0.2629,-0.2638,-0.2637,-0.2642,-0.2641,-0.2643,-0.2613,-0.2609,-0.2643,-0.2643,-0.2643,-0.2643,-0.2643,-0.2643,-0.2517,-0.2535,-0.2537,-0.2558,-0.2563,-0.2579,-0.2584,-0.2592,-0.2599,-0.2617,-0.2628,-0.2631,-0.2639,-0.2652,-0.2663,-0.2665,-0.267,-0.2676,-0.2676,-0.2648,-0.2644,-0.2641,-0.2637,-0.2677,-0.2677,-0.2705,-0.2705,-0.2706]}]]